• Join FlightAware (Why Join?)
  • Login
  • US Flag 
09:06PM EST


 

Airport Tracker/Info


-or-


 

Live Flight TrackerFlight Track Log ✈ SWA662 ✈ 02-Jun-2013 ✈ KLAX - KDEN

Flight Track Log - Related Links

Times and Time Zones

All times are in EDT time to prevent confusion due to time zone crossing. See the SWA662 flight status page for this flight to view local times or setup timezone preferences in your user account.

Time Position Orientation Groundspeed Altitude Reporting Facility
EDT Latitude Longitude Course Direction KTS MPH feet Rate Location/Type
11:10PM 33.9472 -118.4456 264° West 167 192 1,200  Level Los Angeles Center
11:11PM 33.9397 -118.5286 264° West 224 258 3,400 2,160 Climbing Los Angeles Center
11:12PM 33.9022 -118.5906 234° Southwest 269 310 5,600 2,580 Climbing Los Angeles Center
11:13PM 33.8753 -118.5208 115° Southeast 286 329 8,800 2,280 Climbing Los Angeles Center
11:14PM 33.9272 -118.4417 52° Northeast 301 346 10,900 2,520 Climbing Los Angeles Center
11:15PM 33.9931 -118.3269 55° Northeast 344 396 14,600 2,580 Climbing Los Angeles Center
11:16PM 34.0450 -118.2356 56° Northeast 333 383 16,300 1,620 Climbing Los Angeles Center
11:18PM 34.1011 -118.1372 55° Northeast 345 397 18,000 2,040 Climbing Los Angeles Center
11:19PM 34.1611 -118.0294 56° Northeast 379 436 20,600 2,280 Climbing Los Angeles Center
11:20PM 34.2242 -117.9194 55° Northeast 390 449 22,700 1,680 Climbing Los Angeles Center
11:21PM 34.2886 -117.8031 56° Northeast 407 468 24,100 1,560 Climbing Los Angeles Center
11:22PM 34.3733 -117.6519 56° Northeast 443 510 26,000 1,440 Climbing Los Angeles Center
11:23PM 34.4600 -117.5300 49° Northeast 464 534 27,100 1,140 Climbing Los Angeles Center
11:24PM 34.5481 -117.4056 49° Northeast 486 559 28,400 1,260 Climbing Los Angeles Center
11:25PM 34.6375 -117.2767 50° Northeast 501 577 29,700 1,320 Climbing Los Angeles Center
11:26PM 34.7292 -117.1450 50° Northeast 511 588 31,200 1,560 Climbing Los Angeles Center
11:27PM 34.8208 -117.0139 50° Northeast 515 593 32,900 1,500 Climbing Los Angeles Center
11:28PM 34.9103 -116.8850 50° Northeast 508 585 34,300 1,020 Climbing Los Angeles Center
11:29PM 35.0175 -116.7308 50° Northeast 502 578 35,000 300 Climbing Los Angeles Center
11:30PM 35.1061 -116.6014 50° Northeast 501 577 35,000  Level Los Angeles Center
11:31PM 35.2022 -116.4358 55° Northeast 501 577 35,000  Level Los Angeles Center
11:32PM 35.2647 -116.2853 63° Northeast 499 574 35,000  Level Los Angeles Center
11:33PM 35.3253 -116.1333 64° Northeast 496 571 35,000  Level Los Angeles Center
11:34PM 35.3883 -115.9828 63° Northeast 497 572 35,000  Level Los Angeles Center
11:35PM 35.4506 -115.8328 63° Northeast 495 570 35,000  Level Los Angeles Center
11:36PM 35.5258 -115.6597 62° Northeast 493 567 35,000  Level Los Angeles Center
11:37PM 35.5864 -115.5114 63° Northeast 490 564 35,000  Level Los Angeles Center
11:38PM 35.6475 -115.3614 63° Northeast 493 567 35,000  Level Los Angeles Center
11:39PM 35.7086 -115.2106 63° Northeast 495 570 35,000  Level Los Angeles Center
11:40PM 35.7683 -115.0614 64° Northeast 493 567 35,000  Level Los Angeles Center
11:41PM 35.8414 -114.8806 63° Northeast 494 568 35,000  Level Los Angeles Center
11:42PM 35.9006 -114.7311 64° Northeast 489 563 35,000  Level Los Angeles Center
11:43PM 35.9603 -114.5819 64° Northeast 487 560 35,000  Level Los Angeles Center
11:44PM 36.0194 -114.4325 64° Northeast 487 560 35,000  Level Los Angeles Center
11:45PM 36.0783 -114.2828 64° Northeast 486 559 35,000  Level Los Angeles Center
11:46PM 36.1378 -114.1344 64° Northeast 483 556 35,000  Level Los Angeles Center
11:47PM 36.1961 -113.9842 64° Northeast 485 558 35,000  Level Los Angeles Center
11:48PM 36.2536 -113.8347 64° Northeast 483 556 35,000  Level Los Angeles Center
11:49PM 36.3250 -113.6542 64° Northeast 486 559 35,000  Level Los Angeles Center
11:51PM 36.3833 -113.5047 64° Northeast 484 557 35,000  Level Los Angeles Center
11:52PM 36.4403 -113.3525 65° Northeast 486 559 35,000  Level Los Angeles Center
11:53PM 36.4994 -113.2011 64° Northeast 479 551 35,000  Level Los Angeles Center
11:54PM 36.5564 -113.0492 65° Northeast 484 557 35,000  Level Los Angeles Center
11:55PM 36.6131 -112.9000 65° Northeast 480 552 35,000  Level Los Angeles Center
11:56PM 36.6694 -112.7506 65° Northeast 479 551 35,000  Level Los Angeles Center
11:57PM 36.7253 -112.6011 65° Northeast 479 551 35,000  Level Los Angeles Center
11:58PM 36.7928 -112.4211 65° Northeast 480 552 35,000  Level Los Angeles Center
11:59PM 36.8483 -112.2719 65° Northeast 478 550 35,000  Level Los Angeles Center
12:00AM 36.9042 -112.1194 65° Northeast 482 555 35,000  Level Los Angeles Center
12:01AM 36.9608 -111.9669 65° Northeast 486 559 35,000  Level Los Angeles Center
12:02AM 37.0172 -111.8139 65° Northeast 488 562 35,000  Level Los Angeles Center
12:03AM 37.0628 -111.6903 65° Northeast 490 564 35,000  Level Los Angeles Center
12:04AM 37.1411 -111.4739 66° East 489 563 35,000  Level Los Angeles Center
12:05AM 37.1953 -111.3203 66° East 486 559 35,000  Level Los Angeles Center
12:06AM 37.2489 -111.1664 66° East 485 558 35,000  Level Denver Center
12:07AM 37.3150 -110.9836 65° Northeast 482 555 35,000  Level Denver Center
12:08AM 37.3694 -110.8300 66° East 482 555 35,000  Level Denver Center
12:09AM 37.4236 -110.6764 66° East 482 555 35,000  Level Denver Center
12:10AM 37.4769 -110.5228 66° East 481 554 35,000  Level Denver Center
12:11AM 37.5289 -110.3744 66° East 482 555 35,000  Level Denver Center
12:12AM 37.5886 -110.2036 66° East 479 551 35,000  Level Denver Center
12:13AM 37.6389 -110.0578 66° East 473 544 35,000  Level Denver Center
12:14AM 37.6889 -109.9125 66° East 470 541 35,000  Level Denver Center
12:15AM 37.7456 -109.7436 67° East 468 539 35,000  Level Denver Center
12:16AM 37.7956 -109.5992 66° East 468 539 35,000  Level Denver Center
12:17AM 37.8519 -109.4319 67° East 464 534 35,000  Level Denver Center
12:18AM 37.9000 -109.2875 67° East 464 534 35,000  Level Denver Center
12:19AM 37.9478 -109.1458 67° East 459 528 35,000  Level Denver Center
12:20AM 38.0028 -108.9778 67° East 460 529 35,000  Level Denver Center
12:21AM 38.0508 -108.8356 67° East 459 528 35,000  Level Denver Center
12:22AM 38.0997 -108.6864 67° East 467 537 35,000  Level Denver Center
12:23AM 38.1539 -108.5208 67° East 461 531 35,000  Level Denver Center
12:24AM 38.2011 -108.3761 67° East 461 531 35,000  Level Denver Center
12:25AM 38.2469 -108.2319 68° East 461 531 35,000  Level Denver Center
12:26AM 38.3022 -108.0628 67° East 463 533 35,000  Level Denver Center
12:27AM 38.3489 -107.9181 68° East 464 534 35,000  Level Denver Center
12:28AM 38.4025 -107.7486 68° East 463 533 35,000  Level Denver Center
12:29AM 38.4492 -107.6017 68° East 466 536 35,000  Level Denver Center
12:31AM 38.5100 -107.4661 60° Northeast 462 532 35,000  Level Denver Center
12:32AM 38.5803 -107.3072 60° Northeast 461 531 35,000  Level Denver Center
12:33AM 38.6339 -107.1881 60° Northeast 454 522 35,000 -420 Level Denver Center
12:34AM 38.6964 -107.0469 60° Northeast 457 526 34,200 -1,020 Descending Denver Center
12:35AM 38.7717 -106.8767 60° Northeast 460 529 33,000 -1,080 Descending Denver Center
12:36AM 38.8353 -106.7303 61° Northeast 471 542 32,100 -960 Descending Denver Center
12:37AM 38.9044 -106.5778 60° Northeast 470 541 31,100 -1,020 Descending Denver Center
12:38AM 38.9689 -106.4408 59° Northeast 470 541 30,100 -960 Descending Denver Center
12:39AM 39.0294 -106.3089 59° Northeast 454 522 29,200 -1,080 Descending Denver Center
12:40AM 39.1011 -106.1503 60° Northeast 451 519 28,000 -1,140 Descending Denver Center
12:41AM 39.1622 -106.0089 61° Northeast 441 507 26,900 -1,080 Descending Denver Center
12:42AM 39.2233 -105.8725 60° Northeast 440 506 25,900 -1,440 Descending Denver Center
12:43AM 39.2822 -105.7386 60° Northeast 433 498 24,000 -1,740 Descending Denver Center
12:44AM 39.3375 -105.6100 61° Northeast 415 478 22,400 -1,380 Descending Denver Center
12:45AM 39.3908 -105.4903 60° Northeast 390 449 21,300 -1,380 Descending Denver Center
12:46AM 39.4503 -105.3808 55° Northeast 362 417 19,700 -1,560 Descending Denver Center
12:47AM 39.5031 -105.2761 57° Northeast 348 400 18,200 -1,380 Descending Denver Center
12:48AM 39.5614 -105.1675 55° Northeast 341 392 17,000 -1,500 Descending Denver Center
12:49AM 39.6147 -105.0619 57° Northeast 351 404 15,200 -1,560 Descending Denver Center
12:50AM 39.6686 -104.9594 56° Northeast 345 397 13,900 -1,140 Descending Denver Center
12:51AM 39.7211 -104.8603 55° Northeast 334 384 13,000 -960 Descending Denver Center
12:52AM 39.8081 -104.8411 10° North 319 367 12,000 -780 Descending Denver Center
12:53AM 39.8908 -104.8389 North 287 330 11,500 -660 Descending Denver Center
12:54AM 39.9642 -104.8392 360° North 263 303 10,700 -720 Descending Denver Center
12:55AM 40.0392 -104.8403 359° North 252 290 10,100 -840 Descending Denver Center
12:56AM 40.0964 -104.8047 25° Northeast 263 303 9,000 -1,080 Descending Denver Center
12:57AM 40.0675 -104.7325 118° Southeast 231 266 8,000 -960 Descending Denver Center
12:58AM 40.0175 -104.7094 161° South 193 222 7,100 -600 Descending Denver Center
12:59AM 39.9778 -104.6978 167° South 148 170 6,800 -480 Descending Denver Center
01:00AM 39.9408 -104.6956 177° South 136 157 6,200 -660 Descending Denver Center
01:01AM 39.8981 -104.6961 181° South 141 162 5,500 -720 Descending Denver Center
01:03AM 39.8617 -104.6732 180° South  Level Estimated
01:10AM 39.8617 -104.6732 180° South  Level Estimated
01:11AM 39.8617 -104.6732 180° South  Level Estimated
01:12AM 39.8617 -104.6732 180° South  Level Estimated